Grand Junction, CO

1:26 PM MDT on April 25, 2017 (GMT -0600)
Walker

Weather History for KGJT - April, 2014

Change the Weather History Date:

Friday, April 11, 2014

  Actual Average Record
Temperature  
Mean Temperature 57 °F 50 °F  
Max Temperature 77 °F 64 °F 84 °F (2012)
Min Temperature 36 °F 37 °F 20 °F (1951)
Degree Days  
Heating Degree Days 8 15  
Month to date heating degree days 177 177  
Since 1 July heating degree days 5767 5209  
Cooling Degree Days 0 0  
Month to date cooling degree days 0 0  
Year to date cooling degree days 0 0  
Growing Degree Days 8 (Base 50)    
Moisture  
Dew Point 20 °F    
Average Humidity 31    
Maximum Humidity 54    
Minimum Humidity 7    
Precipitation  
Precipitation 0.00 in 0.03 in 0.72 in (1955)
Month to date precipitation 0.26 0.36  
Year to date precipitation 1.74 2.40  
Snow  
Snow 0.00 in 0.10 in 5.50 in (1955)
Month to date snowfall T 0.6  
Since 1 July snowfall 25.7 18.7  
Snow Depth 0.00 in    
Sea Level Pressure  
Sea Level Pressure 29.85 in    
Wind  
Wind Speed 7 mph (East)    
Max Wind Speed 24 mph    
Max Gust Speed 29 mph    
Visibility 10 miles    
Events      
T = Trace of Precipitation, MM = Missing Value Source: NWS Daily Summary

Daily Weather History Graph

Daily Weather History Graph

Search for Another Location

Airport or City:

Trip Planner

Search our weather history database for the weather conditions in past years. The results will help you decide how hot, cold, wet, or windy it might be!

Date:

Astronomy

Apr. 11, 2014 Rise Set
Actual Time 6:43 AM MDT 7:47 PM MDT
Civil Twilight 6:15 AM MDT 8:15 PM MDT
Nautical Twilight 5:43 AM MDT 8:47 PM MDT
Astronomical Twilight 5:09 AM MDT 9:22 PM MDT
Moon 4:32 PM MDT (4/11) 4:38 AM MDT (4/11)
Length of Visible Light 13h 59m
Length of Day
13h 04m
Waxing Gibbous, 87% of the Moon is Illuminated
Apr 11
Waxing Gibbous
Apr 15
Full
Apr 22
Last Quarter
Apr 29
New
May 6
First Quarter

Hourly Weather History & Observations

Time (MDT) Temp. Windchill Dew Point Humidity Pressure Visibility Wind Dir Wind Speed Gust Speed Precip Events Conditions
12:53 AM 48.9 °F - 21.0 °F 33% 29.91 in 10.0 mi ENE 6.9 mph - N/A   Clear
1:53 AM 42.1 °F 39.2 °F 21.9 °F 45% 29.93 in 10.0 mi East 4.6 mph - N/A   Clear
2:53 AM 46.0 °F 42.5 °F 21.0 °F 37% 29.93 in 10.0 mi East 6.9 mph - N/A   Clear
3:53 AM 41.0 °F - 23.0 °F 49% 29.94 in 10.0 mi Calm Calm - N/A   Clear
4:53 AM 37.9 °F - 23.0 °F 55% 29.96 in 10.0 mi Calm Calm - N/A   Clear
5:53 AM 42.1 °F 37.7 °F 23.0 °F 47% 29.95 in 10.0 mi ENE 6.9 mph - N/A   Clear
6:53 AM 44.1 °F 37.7 °F 24.1 °F 45% 29.96 in 10.0 mi ESE 12.7 mph - N/A   Clear
7:53 AM 46.0 °F 41.4 °F 25.0 °F 44% 29.99 in 10.0 mi SE 9.2 mph - N/A   Clear
8:53 AM 52.0 °F - 25.0 °F 35% 29.99 in 10.0 mi SE 10.4 mph - N/A   Clear
9:53 AM 57.9 °F - 26.1 °F 30% 29.96 in 10.0 mi SSE 6.9 mph - N/A   Clear
10:53 AM 63.0 °F - 24.1 °F 23% 29.95 in 10.0 mi ESE 6.9 mph - N/A   Clear
11:53 AM 66.9 °F - 23.0 °F 19% 29.91 in 10.0 mi SSE 9.2 mph - N/A   Clear
12:53 PM 70.0 °F - 19.9 °F 15% 29.87 in 10.0 mi Calm Calm - N/A   Clear
1:53 PM 72.0 °F - 23.0 °F 16% 29.86 in 10.0 mi NW 8.1 mph - N/A   Clear
2:53 PM 73.9 °F - 23.0 °F 15% 29.81 in 10.0 mi NW 8.1 mph - N/A   Clear
3:53 PM 75.0 °F - 17.1 °F 11% 29.78 in 10.0 mi North - - N/A   Clear
4:53 PM 75.9 °F - 9.0 °F 8% 29.76 in 10.0 mi West 18.4 mph 26.5 mph N/A   Clear
5:53 PM 73.9 °F - 15.1 °F 11% 29.74 in 10.0 mi West 12.7 mph - N/A   Clear
6:53 PM 72.0 °F - 15.1 °F 11% 29.73 in 10.0 mi West 11.5 mph - N/A   Clear
7:53 PM 64.9 °F - 16.0 °F 15% 29.74 in 10.0 mi NW 3.5 mph - N/A   Clear
8:53 PM 59.0 °F - 18.0 °F 20% 29.74 in 10.0 mi NNE 6.9 mph - N/A   Clear
9:53 PM 55.9 °F - 18.0 °F 23% 29.75 in 10.0 mi ENE 8.1 mph - N/A   Clear
10:53 PM 57.0 °F - 15.1 °F 19% 29.72 in 10.0 mi ENE 8.1 mph - N/A   Clear
11:53 PM 57.9 °F - 14.0 °F 18% 29.70 in 10.0 mi ENE 6.9 mph - N/A   Clear